1366588833892,1.62785
1366588893892,1.63105
1366588953892,1.62546
1366589013892,1.63480
1366589073892,1.60237
1366589133892,1.62986
1366589193892,1.61255
1366589253892,1.63287
1366589313892,1.64966
1366589373892,1.63605
1366589433892,1.64352
1366589493892,1.63499
1366589553892,1.63280
1366589613892,1.62988
1366589673892,1.63051
1366589733892,1.64467
1366589793892,1.63611
1366589853892,1.61867
1366589913892,1.63831
1366589973892,1.63781
1366590033892,1.64300
1366590093892,1.62112
1366590153892,1.63851
1366590213892,1.62115
1366590273892,1.63938
1366590333892,1.64306
1366590393892,1.60712
1366590453892,1.63542
1366590513892,1.63008
1366590573892,1.63822
1366590633892,1.62749
1366590693892,1.62440
1366590753892,1.63611
1366590813892,1.64463
1366590873892,1.63045
1366590933892,1.64986
1366590993892,1.66805
1366591053892,1.62366
1366591113892,1.64403
1366591173892,1.64079
1366591233892,1.62934
1366591293892,1.63711
1366591353892,1.64157
1366591413892,1.64333
1366591473892,1.64863
1366591533892,1.62690
1366591593892,1.66790
1366591653892,1.62827
1366591713892,1.62880
1366591773892,1.62596
1366591833892,1.63316
1366591893892,1.63176
1366591953892,1.63796
1366592013892,1.65282
1366592073892,1.63027
1366592133892,1.64034
1366592193892,1.64146
1366592253892,1.62097
1366592313892,1.63933
1366592373892,1.61825
1366592433903,1.66394
1366592493903,1.62523
1366592553903,1.63730
1366592613903,1.64016
1366592673903,1.63836
1366592733903,1.62661
1366592793903,1.68485
1366592853903,1.62356
1366592913903,1.62682
1366592973903,1.64454
1366593033903,1.65655
1366593093903,1.63636
1366593153903,1.62990
1366593213903,1.64403
1366593273903,1.62672
1366593333903,1.63999
1366593393903,1.63728
1366593453903,1.63637
1366593513903,1.65520
1366593573903,1.61728
1366593633903,1.62981
1366593693903,1.64420
1366593753903,1.62843
1366593813903,1.64789
1366593873903,1.63100
1366593933903,1.63483
1366593993903,1.62371
1366594053903,1.62941
1366594113903,1.63581
1366594173903,1.64381
1366594233903,1.64670
1366594293903,1.64412
1366594353903,1.63148
1366594413903,1.65145
1366594473903,1.63776
1366594533903,1.64743
1366594593903,1.63136
1366594653903,1.62339
1366594713903,1.61990
1366594773903,1.65931
1366594833903,1.63962
1366594893903,1.61933
1366594953903,1.64726
1366595013903,1.65364
1366595073903,1.65806
1366595133903,1.64364
1366595193903,1.65069
1366595253903,1.64652
1366595313903,1.63423
1366595373903,1.64764
1366595433903,1.64431
1366595493903,1.65231
1366595553903,1.65883
1366595613903,1.65264
1366595673903,1.61400
1366595733903,1.64386
1366595793903,1.66721
1366595853903,1.66025
1366595913903,1.66432
1366595973903,1.64521
1366596033914,1.64328
1366596093914,1.63821
1366596153914,1.63751
1366596213914,1.64315
1366596273914,1.66718
1366596333914,1.62850
1366596393914,1.65352
1366596453914,1.64784
1366596513914,1.66164
1366596573914,1.61574
1366596633914,1.62093
1366596693914,1.63422
1366596753914,1.63313
1366596813914,1.63225
1366596873914,1.63277
1366596933914,1.65402
1366596993914,1.65141
1366597053914,1.65518
1366597113914,1.62988
1366597173914,1.65484
1366597233914,1.63383
1366597293914,1.63171
1366597353914,1.68574
1366597413914,1.65330
1366597473914,1.64832
1366597533914,1.64330
1366597593914,1.65787
1366597653914,1.62565
1366597713914,1.63096
1366597773914,1.64516
1366597833914,1.63495
1366597893914,1.66083
1366597953914,1.65209
1366598013914,1.66185
1366598073914,1.62877
1366598133914,1.65771
1366598193914,1.64184
1366598253914,1.63295
1366598313914,1.65414
1366598373914,1.64845
1366598433914,1.63963
1366598493914,1.66641
1366598553914,1.65967
1366598613914,1.64853
1366598673914,1.64685
1366598733914,1.62387
1366598793914,1.64583
1366598853914,1.63218
1366598913914,1.66156
1366598973914,1.63179
1366599033914,1.63085
1366599093914,1.64166
1366599153914,1.65345
1366599213914,1.64275
1366599273914,1.63921
1366599333914,1.65309
1366599393914,1.64959
1366599453914,1.65537
1366599513914,1.63813
1366599573914,1.62889
1366599633925,1.64253
1366599693925,1.64312
1366599753925,1.64690
1366599813925,1.64913
1366599873925,1.64144
1366599933925,1.64084
1366599993925,1.62379
1366600053925,1.64715
1366600113925,1.64288
1366600173925,1.64223
1366600233925,1.64137
1366600293925,1.64675
1366600353925,1.64690
1366600413925,1.63366
1366600473925,1.64465
1366600533925,1.64260
1366600593925,1.62424
1366600653925,1.62985
1366600713925,1.64498
1366600773925,1.61895
1366600833925,1.65565
1366600893925,1.65317
1366600953925,1.64555
1366601013925,1.66774
1366601073925,1.63910
1366601133925,1.64001
1366601193925,1.64231
1366601253925,1.62096
1366601313925,1.65664
1366601373925,1.65180
1366601433925,1.65351
1366601493925,1.63922
1366601553925,1.64401
1366601613925,1.65181
1366601673925,1.71497
1366601733925,1.65794
1366601793925,1.63162
1366601853925,1.46780
1366601913925,1.65872
1366601973925,1.66187
1366602033925,1.65712
1366602093925,1.66599
1366602153925,1.66629
1366602213925,1.65368
1366602273925,1.66578
1366602333925,1.66045
1366602393925,1.66805
1366602453925,1.65245
1366602513925,1.65773
1366602573925,1.64725
1366602633925,1.66310
1366602693925,1.63406
1366602753925,1.65422
1366602813925,1.63334
1366602873925,1.64571
1366602933925,1.66852
1366602993925,1.62966
1366603053925,1.64789
1366603113925,1.64659
1366603173925,1.64080
1366603233936,1.65507
1366603293936,1.65673
1366603353936,1.64796
1366603413936,1.67297
1366603473936,1.67614
1366603533936,1.67094
1366603593936,1.67455
1366603653936,1.65328
1366603713936,1.65286
1366603773936,1.66756
1366603833936,1.66419
1366603893936,1.68147
1366603953936,1.63103
1366604013936,1.63507
1366604073936,1.65477
1366604133936,1.65730
1366604193936,1.65670
1366604253936,1.63787
1366604313936,1.64013
1366604373936,1.62792
1366604433936,1.65997
1366604493936,1.65015
1366604553936,1.76263
1366604613936,1.64241
1366604673936,1.64690
1366604733936,1.66268
1366604793936,1.67012
1366604853936,1.64067
1366604913936,1.65788
1366604973936,1.63173
1366605033936,1.64639
1366605093936,1.64624
1366605153936,1.65230
1366605213936,1.64126
1366605273936,1.64101
1366605333936,1.64317
1366605393936,1.63938
1366605453936,1.62114
1366605513936,1.64189
1366605573936,1.63513
1366605633936,1.63804
1366605693936,1.64204
1366605753936,1.64700
1366605813936,1.65834
1366605873936,1.65682
1366605933936,1.64695
1366605993936,1.64423
1366606053936,1.66478
1366606113936,1.65871
1366606173936,1.65133
1366606233936,1.63798
1366606293936,1.66299
1366606353936,1.65971
1366606413936,1.63907
1366606473936,1.64514
1366606533936,1.64919
1366606593936,1.65517
1366606653936,1.66597
1366606713936,1.63652
1366606773936,1.65564
1366606833946,1.66111
1366606893946,1.66009
1366606953946,1.66348
1366607013946,1.65477
1366607073946,1.65136
1366607133946,1.64697
1366607193946,1.65331
1366607253946,1.66982
1366607313946,1.64434
1366607373946,1.66499
1366607433946,1.65645
1366607493946,1.63961
1366607553946,1.65244
1366607613946,1.64002
1366607673946,1.63867
1366607733946,1.67027
1366607793946,1.65009
1366607853946,1.63433
1366607913946,1.65309
1366607973946,1.65131
1366608033946,1.66372
1366608093946,1.66618
1366608153946,1.63968
1366608213946,1.66299
1366608273946,1.64447
1366608333946,1.65557
1366608393946,1.64359
1366608453946,1.67173
1366608513946,1.64699
1366608573946,1.65094
1366608633946,1.65040
1366608693946,1.66256
1366608753946,1.65571
1366608813946,1.66168
1366608873946,1.66534
1366608933946,1.66320
1366608993946,1.65642
1366609053946,1.67909
1366609113946,1.66841
1366609173946,1.64761
1366609233946,1.65961
1366609293946,1.64960
1366609353946,1.65284
1366609413946,1.65805
1366609473946,1.65754
1366609533946,1.66172
1366609593946,1.56582
1366609653946,1.67895
1366609713946,1.65362
1366609773946,1.66459
1366609833946,1.68195
1366609893946,1.67177
1366609953946,1.65948
1366610013946,1.64380
1366610073946,1.66017
1366610133946,1.65583
1366610193946,1.66720
1366610253946,1.64738
1366610313946,1.65026
1366610373946,1.65758
1366610433957,1.66016
1366610493957,1.66151
1366610553957,1.66458
1366610613957,1.67613
1366610673957,1.67181
1366610733957,1.67227
1366610793957,1.64216
1366610853957,1.66839
1366610913957,1.68358
1366610973957,1.66827
1366611033957,1.67362
1366611093957,1.67104
1366611153957,1.66693
1366611213957,1.66775
1366611273957,1.67546
1366611333957,1.65311
1366611393957,1.66838
1366611453957,1.68508
1366611513957,1.69122
1366611573957,1.67631
1366611633957,1.67632
1366611693957,1.60584
1366611753957,1.67317
1366611813957,1.66990
1366611873957,1.68008
1366611933957,1.67870
1366611993957,1.68716
1366612053957,1.67908
1366612113957,1.67276
1366612173957,1.68044
1366612233957,1.67562
1366612293957,1.69476
1366612353957,1.67211
1366612413957,1.64367
1366612473957,1.67705
1366612533957,1.66197
1366612593957,1.67954
1366612653957,1.66721
1366612713957,1.67845
1366612773957,1.67263
1366612833957,1.67318
1366612893957,1.66522
1366612953957,1.69136
1366613013957,1.64308
1366613073957,1.67399
1366613133957,1.68521
1366613193957,1.69736
1366613253957,1.67458
1366613313957,1.68377
1366613373957,1.65719
1366613433957,1.65914
1366613493957,1.68185
1366613553957,1.66925
1366613613957,1.67017
1366613673957,1.65117
1366613733957,1.65403
1366613793957,1.67280
1366613853957,1.65511
1366613913957,1.65289
1366613973957,1.65559
1366614033967,2.03597
1366614093967,1.68261
1366614153967,1.67007
1366614213967,1.68668
1366614273967,1.66632
1366614333967,1.66649
1366614393967,1.67867
1366614453967,1.63008
1366614513967,1.67149
1366614573967,1.67499
1366614633967,1.68822
1366614693967,1.66313
1366614753967,1.61461
1366614813967,1.66265
1366614873967,1.68467
1366614933967,1.67795
1366614993967,1.67578
1366615053967,1.67295
1366615113967,1.66622
1366615173967,1.67001
1366615233967,1.66961
1366615293967,1.67575
1366615353967,1.67796
1366615413967,1.66828
1366615473967,1.66827
1366615533967,1.67714
1366615593967,1.66052
1366615653967,1.65192
1366615713967,1.67053
1366615773967,1.67694
1366615833967,1.68065
1366615893967,1.64666
1366615953967,1.67498
1366616013967,1.67515
1366616073967,1.64883
1366616133967,1.67952
1366616193967,1.66401
1366616253967,1.66607
1366616313967,1.66178
1366616373967,1.66068
1366616433967,1.63644
1366616493967,1.67637
1366616553967,1.66045
1366616613967,1.66011
1366616673967,1.68378
1366616733967,1.66107
1366616793967,1.67619
1366616853967,1.69678
1366616913967,1.66565
1366616973967,1.67882
1366617033967,1.65738
1366617093967,1.67415
1366617153967,1.66651
1366617213967,1.69327
1366617273967,1.65093
1366617333967,1.66242
1366617393967,1.65558
1366617453967,1.67177
1366617513967,1.65426
1366617573967,1.65343
1366617633978,1.67165
1366617693978,1.66266
1366617753978,1.66812
1366617813978,1.67211
1366617873978,1.67006
1366617933978,1.67511
1366617993978,1.65827
1366618053978,1.67207
1366618113978,1.67087
1366618173978,1.66710
1366618233978,1.66255
1366618293978,1.65969
1366618353978,1.66920
1366618413978,1.68974
1366618473978,1.66558
1366618533978,1.66436
1366618593978,1.68341
1366618653978,1.67646
1366618713978,1.68296
1366618773978,1.65054
1366618833978,1.68585
1366618893978,1.67315
1366618953978,1.65025
1366619013978,1.65496
1366619073978,1.65248
1366619133978,1.65314
1366619193978,1.67475
1366619253978,1.65386
1366619313978,1.64181
1366619373978,1.67172
1366619433978,1.68184
1366619493978,1.68941
1366619553978,1.68201
1366619613978,1.65310
1366619673978,1.67438
1366619733978,1.67283
1366619793978,1.68455
1366619853978,1.67404
1366619913978,1.67485
1366619973978,1.69158
1366620033978,1.67619
1366620093978,1.68089
1366620153978,1.66955
1366620213978,1.68035
1366620273978,1.69458
1366620333978,1.67697
1366620393978,1.66462
1366620453978,1.67380
1366620513978,1.66494
1366620573978,1.68515
1366620633978,1.66568
1366620693978,1.65636
1366620753978,1.67708
1366620813978,1.68944
1366620873978,1.67204
1366620933978,1.65714
1366620993978,1.66406
1366621053978,1.67778
1366621113978,1.66693
1366621173978,1.67312
1366621233988,1.68725
1366621293988,1.66410
1366621353988,1.67864
1366621413988,1.66747
1366621473988,1.67901
1366621533988,1.67408
1366621593988,1.68786
1366621653988,1.67623
1366621713988,1.68285
1366621773988,1.68135
1366621833988,1.65080
1366621893988,1.67159
1366621953988,1.69216
1366622013988,1.69808
1366622073988,1.68119
1366622133988,1.71466
1366622193988,1.69240
1366622253988,1.69388
1366622313988,1.69085
1366622373988,1.67409
1366622433988,1.68606
1366622493988,1.69689
1366622553988,1.67783
1366622613988,1.68959
1366622673988,1.69368
1366622733988,1.69047
1366622793988,1.69437
1366622853988,1.69345
1366622913988,1.67373
1366622973988,1.67193
1366623033988,1.70916
1366623093988,1.68187
1366623153988,1.68779
1366623213988,1.67563
1366623273988,1.68799
1366623333988,1.68322
1366623393988,1.69327
1366623453988,1.68696
1366623513988,1.68794
1366623573988,1.68422
1366623633988,1.70267
1366623693988,1.71245
1366623753988,1.72808
1366623813988,1.70574
1366623873988,1.69700
1366623933988,1.68765
1366623993988,1.72359
1366624053988,1.71139
1366624113988,1.69108
1366624173988,1.69261
1366624233988,1.70523
1366624293988,1.70227
1366624353988,1.68816
1366624413988,1.68710
1366624473988,1.69055
1366624533988,1.71308
1366624593988,1.67087
1366624653988,1.70646
1366624713988,1.69273
1366624773988,1.70179
1366624833999,1.69489
1366624893999,1.72522
1366624953999,1.69729
1366625013999,1.70884
1366625073999,1.68953
1366625133999,1.71437
1366625193999,1.69928
1366625253999,1.71010
1366625313999,1.68574
1366625373999,1.70968
1366625433999,1.71025
1366625493999,1.68268
1366625553999,1.70725
1366625613999,1.70312
1366625673999,1.70495
1366625733999,1.66509
1366625793999,1.70772
1366625853999,1.69908
1366625913999,1.71492
1366625973999,1.69247
1366626033999,1.69617
1366626093999,1.69750
1366626153999,1.69073
1366626213999,1.70319
1366626273999,1.69766
1366626333999,1.69432
1366626393999,1.70200
1366626453999,1.71009
1366626513999,1.70840
1366626573999,1.73001
1366626633999,1.72700
1366626693999,1.72588
1366626753999,1.75025
1366626813999,1.75289
1366626873999,1.74574
1366626933999,1.72653
1366626993999,1.72662
1366627053999,1.71943
1366627113999,1.71461
1366627173999,1.69838
1366627233999,1.70170
1366627293999,1.71463
1366627353999,1.71252
1366627413999,1.73226
1366627473999,1.71752
1366627533999,1.68330
1366627593999,1.71857
1366627653999,1.69061
1366627713999,1.70737
1366627773999,1.77927
1366627833999,1.69100
1366627893999,1.71946
1366627953999,1.70565
1366628013999,1.70440
1366628073999,1.72987
1366628133999,1.67524
1366628193999,1.69775
1366628253999,1.67429
1366628313999,1.69526
1366628373999,1.67934
1366628434009,1.69963
1366628494009,1.68234
1366628554009,1.69255
1366628614009,1.68463
1366628674009,1.71736
1366628734009,1.69866
1366628794009,1.69150
1366628854009,1.66836
1366628914009,1.66624
1366628974009,1.68534
1366629034009,1.69406
1366629094009,1.68006
1366629154009,1.69145
1366629214009,1.67072
1366629274009,1.68358
1366629334009,1.71540
1366629394009,1.67835
1366629454009,1.69528
1366629514009,1.69268
1366629574009,1.67473
1366629634009,1.69426
1366629694009,1.68806
1366629754009,1.68453
1366629814009,1.71266
1366629874009,1.68731
1366629934009,1.70482
1366629994009,1.70171
1366630054009,1.67163
1366630114009,1.68414
1366630174009,1.69328
1366630234009,1.69112
1366630294009,1.70277
1366630354009,1.68861
1366630414009,1.68999
1366630474009,1.68117
1366630534009,1.69147
1366630594009,1.69047
1366630654009,1.67760
1366630714009,1.67030
1366630774009,1.71284
1366630834009,1.68495
1366630894009,1.71018
1366630954009,1.68500
1366631014009,1.67756
1366631074009,1.68370
1366631134009,1.68285
1366631194009,1.67676
1366631254009,1.70717
1366631314009,1.72154
1366631374009,1.67816
1366631434009,1.69136
1366631494009,1.70737
1366631554009,1.69154
1366631614009,1.67432
1366631674009,1.68057
1366631734009,1.68634
1366631794009,1.68887
1366631854009,1.70493
1366631914009,1.69435
1366631974009,1.69434
1366632034020,1.68236
1366632094020,1.68933
1366632154020,1.69207
1366632214020,1.66589
1366632274019,1.68573
1366632334019,1.69973
1366632394019,1.68464
1366632454019,1.68921
1366632514019,1.68908
1366632574019,1.70457
1366632634019,1.71917
1366632694019,1.67792
1366632754019,1.68302
1366632814019,1.68970
1366632874019,1.69016
1366632934019,1.69356
1366632994019,1.70969
1366633054019,1.66712
1366633114019,1.68520
1366633174019,1.68922
1366633234019,1.67864
1366633294020,1.70186
1366633354020,1.70274
1366633414020,1.68910
1366633474020,1.71724
1366633534020,1.70853
1366633594020,1.69352
1366633654019,1.70785
1366633714019,1.68102
1366633774019,1.70928
1366633834019,1.66942
1366633894019,1.70123
1366633954019,1.69558
1366634014019,1.69167
1366634074019,1.68777
1366634134019,1.70440
1366634194019,1.69167
1366634254019,1.68939
1366634314019,1.68465
1366634374019,1.67492
1366634434019,1.72714
1366634494019,1.68588
1366634554019,1.68719
1366634614020,1.70584
1366634674020,1.69376
1366634734020,1.69367
1366634794020,1.69550
1366634854020,1.68132
1366634914020,1.69036
1366634974019,1.70589
1366635034019,1.71846
1366635094019,1.68272
1366635154019,1.69796
1366635214019,1.68748
1366635274019,1.68417
1366635334019,1.70511
1366635394019,1.70252
1366635454019,1.70306
1366635514019,1.69238
1366635574019,1.70643
1366635634030,1.72670
1366635694030,1.71261
1366635754030,1.71152
1366635814030,1.70656
1366635874030,1.72515
1366635934030,1.70169
1366635994030,1.70000
1366636054030,1.67647
1366636114030,1.69950
1366636174030,1.71354
1366636234030,1.70427
1366636294030,1.55919
1366636834030,1.71448
1366636894030,1.65022
1366636954030,1.71156
1366637014030,1.67882
1366637074030,1.70491
1366637134030,1.65267
1366637194030,1.70506
1366637254030,1.70912
1366637314030,1.69149
1366637374030,1.70104
1366637434030,1.70606
1366637494030,1.69552
1366637554030,1.69242
1366637614030,1.70461
1366637674030,1.68963
1366637734030,1.70070
1366637794030,1.71788
1366637854030,1.68481
1366637914030,1.71987
1366637974030,1.69707
1366638034030,1.70415
1366638094030,1.70901
1366638154030,1.72141
1366638214030,1.72059
1366638274030,1.69534
1366638334030,1.72625
1366638394030,1.70018
1366638454030,1.71166
1366638514030,1.71278
1366638574030,1.71992
1366638634030,1.71851
1366638694030,1.70166
1366638754030,1.71369
1366638814030,1.70501
1366638874030,1.72066
1366638934030,1.71325
1366638994030,1.69282
1366639054030,1.70290
1366639114030,1.71450
1366639174030,1.68973
1366639234040,1.72830
1366639294040,1.71947
1366639354040,1.70040
1366639414040,1.72482
1366639474040,1.68501
1366639534040,1.73370
1366639594040,1.72857
1366639654040,1.71358
1366639714040,1.71261
1366639774040,1.70914
1366639834040,1.69928
1366639894040,1.70666
1366639954040,1.72433
1366640014040,1.70599
1366640074040,1.71658
1366640134040,1.70643
1366640194040,1.72376
1366640254040,1.73565
1366640314040,1.71802
1366640374040,1.71306
1366640434040,1.69346
1366640494040,1.73627
1366640554040,1.71145
1366640614040,1.72310
1366640674040,1.73859
1366640734040,1.73400
1366640794040,1.71702
1366640854040,1.72122
1366640914040,1.73102
1366640974040,1.74284
1366641034040,1.73287
1366641094040,1.73141
1366641154040,1.69923
1366641214040,1.71975
1366641274040,1.74530
1366641334040,1.71669
1366641394040,1.71063
1366641454040,1.72382
1366641514040,1.71592
1366641574040,1.71883
1366641634040,1.72135
1366641694040,1.72482
1366641754040,1.72467
1366641814040,1.72257
1366641874040,1.74285
1366641934040,1.72114
1366641994040,1.72158
1366642054040,1.71081
1366642114040,1.72197
1366642174040,1.73019
1366642234040,1.71941
1366642294040,1.70555
1366642354040,1.69717
1366642414040,1.72391
1366642474040,1.73293
1366642534040,1.70825
1366642594040,1.76058
1366642654040,1.70885
1366642714040,1.73641
1366642774040,1.71360
1366642834050,1.73042
1366642894050,1.72500
1366642954050,1.72310
1366643014050,1.72258
1366643074050,1.74235
1366643134050,1.72494
1366643194050,1.70451
1366643254050,1.70382
1366643314050,1.74303
1366643374050,1.70280
1366643434050,1.72217
1366643494050,1.69566
1366643554050,1.71836
1366643614050,1.71925
1366643674050,1.72360
1366643734050,1.71020
1366643794050,1.71332
1366643854050,1.73923
1366643914050,1.72570
1366643974050,1.71184
1366644034050,1.73304
1366644094050,1.70263
1366644154050,1.72817
1366644214050,1.74558
1366644274050,1.72593
1366644334050,1.71724
1366644394050,1.71522
1366644454050,1.80146
1366644514050,1.74733
1366644574050,1.75255
1366644634050,1.81910
1366644694050,1.77157
1366644754050,1.75384
1366644814050,1.73604
1366644874050,1.71580
1366644934050,1.74541
1366644994050,1.72528
1366645054050,1.73712
1366645114050,1.74330
1366645174050,1.73536
1366645234050,1.67837
1366645294050,1.70559
1366645354050,1.71965
1366645414050,1.70124
1366645474050,1.73151
1366645534050,1.73365
1366645594050,1.69401
1366645654050,1.73851
1366645714050,1.72362
1366645774050,1.72407
1366645834050,1.70725
1366645894050,1.71577
1366645954050,1.71349
1366646014050,1.72322
1366646074050,1.73676
1366646134050,1.70489
1366646194050,1.71727
1366646254050,1.71729
1366646314050,1.75539
1366646374050,1.74266
1366646434060,1.73453
1366646494060,1.72424
1366646554060,1.73632
1366646614060,1.74165
1366646674060,1.72564
1366646734060,1.72543
1366646794060,1.72841
1366646854060,1.71969
1366646914060,1.73052
1366646974060,1.73551
1366647034060,1.70997
1366647094060,1.74039
1366647154060,1.71227
1366647214060,1.74028
1366647274060,1.73050
1366647334060,1.72497
1366647394060,1.73110
1366647454060,1.72148
1366647514060,1.72200
1366647574060,1.74583
1366647634060,1.73082
1366647694060,1.72905
1366647754060,1.74170
1366647814060,1.71042
1366647874060,1.73304
1366647934060,1.73607
1366647994060,1.69314
1366648054060,1.72040
1366648114060,1.73841
1366648174060,1.73600
1366648234060,1.73047
1366648294060,1.72347
1366648354060,1.73836
1366648414060,1.72380
1366648474060,1.71714
1366648534060,1.71695
1366648594060,1.75115
1366648654060,1.73758
1366648714060,1.71990
1366648774060,1.71932
1366648834060,1.73731
1366648894060,1.72000
1366648954060,1.72807
1366649014060,1.72226
1366649074060,1.72001
1366649134060,1.72255
1366649194060,1.71767
1366649254060,1.73965
1366649314060,1.73027
1366649374060,1.73523
1366649434060,1.73700
1366649494060,1.74160
1366649554060,1.74169
1366649614060,1.75056
1366649674060,1.73677
1366649734060,1.72829
1366649794060,1.72882
1366649854060,1.73783
1366649914060,1.71046
1366649974060,1.73708
1366650034070,1.73585
1366650094070,1.70112
1366650154070,1.74984
1366650214070,1.72256
1366650274070,1.73182
1366650334070,1.72310
1366650394070,1.73549
1366650454070,1.74296
1366650514070,1.73667
1366650574070,1.74672
1366650634070,1.72414
1366650694070,1.57353
1366650754070,1.73628
1366650814070,1.70600
1366650874070,1.72881
1366650934070,1.71668
1366650994070,1.74652
1366651054070,1.74481
1366651114070,1.70229
1366651174070,1.73470
1366651234070,1.70936
1366651294070,1.71834
1366651354070,1.72173
1366651414070,1.71979
1366651474070,1.71360
1366651534070,1.71904
1366651594070,1.72172
1366651654070,1.71502
1366651714070,1.71419
1366651774070,1.72619
1366651834070,1.71459
1366651894070,1.73443
1366651954070,1.72111
1366652014070,1.73629
1366652074070,1.72152
1366652134070,1.73117
1366652194070,1.73652
1366652254070,1.72938
1366652314070,1.65972
1366652374070,1.74955
1366652434070,1.75040
1366652494070,1.71136
1366652554070,1.74537
1366652614070,1.75150
1366652674070,1.74352
1366652734070,1.73055
1366652794070,1.70586
1366652854070,1.74869
1366652914070,1.73070
1366652974070,1.73514
1366653034070,1.75959
1366653094070,1.72019
1366653154070,1.74771
1366653214070,1.74510
1366653274070,1.73813
1366653334070,1.73287
1366653394070,1.75948
1366653454070,1.76325
1366653514070,1.73502
1366653574070,1.73345
1366653634080,1.72692
1366653694080,1.73114
1366653754080,1.75358
1366653814080,1.74654
1366653874080,1.74020
1366653934080,1.73973
1366653994080,1.72458
1366654054080,1.73819
1366654114080,1.73353
1366654174080,1.73402
1366654234080,1.73899
1366654294080,1.73955
1366654354080,1.75181
1366654414080,1.73253
1366654474080,1.73462
1366654534080,1.70978
1366654594080,1.75008
1366654654080,1.80423